Change the Weather History Date:

Tuesday, December 13, 2011

  Actual Average Record
Temperature  
Mean Temperature 59 °F 50 °F  
Max Temperature 70 °F 61 °F 82 °F (1927)
Min Temperature 47 °F 40 °F 12 °F (1989)
Degree Days  
Heating Degree Days 6 15  
Month to date heating degree days 200 180  
Since 1 July heating degree days 497 487  
Cooling Degree Days 0 0  
Month to date cooling degree days 0 4  
Year to date cooling degree days 3420 2587  
Growing Degree Days 8 (Base 50)    
Moisture  
Dew Point 51 °F    
Average Humidity 75    
Maximum Humidity 89    
Minimum Humidity 61    
Precipitation  
Precipitation 0.00 in 0.14 in 2.66 in (1928)
Month to date precipitation 1.77 1.95  
Year to date precipitation 29.01 46.46  
Snow  
Snow 0.00 in - - ()
Month to date snowfall 0.0  
Since 1 July snowfall 0.0  
Snow Depth 0.00 in    
Sea Level Pressure  
Sea Level Pressure 30.26 in    
Wind  
Wind Speed 8 mph (ESE)    
Max Wind Speed 16 mph    
Max Gust Speed 20 mph    
Visibility 10 miles    
Events      
T = Trace of Precipitation, MM = Missing Value Source: NWS Daily Summary

Daily Weather History Graph

Daily Weather History Graph

Search for Another Location

Airport or City:

Trip Planner

Search our weather history database for the weather conditions in past years. The results will help you decide how hot, cold, wet, or windy it might be!

Date:

Astronomy

Dec. 13, 2011 Rise Set
Actual Time 7:08 AM CST 5:17 PM CST
Civil Twilight 6:42 AM CST 5:44 PM CST
Nautical Twilight 6:11 AM CST 6:14 PM CST
Astronomical Twilight 5:42 AM CST 6:44 PM CST
Moon 8:25 PM CST (12/13) 9:25 AM CST (12/13)
Length of Visible Light 11h 02m
Length of Day
10h 08m
Waning Gibbous, 90% of the Moon is Illuminated
Dec 13
Waning Gibbous
Dec 17
Last Quarter
Dec 24
New
Jan 1
First Quarter
Jan 9
Full

Hourly Weather History & Observations

Time (CST) Temp. Dew Point Humidity Pressure Visibility Wind Dir Wind Speed Gust Speed Precip Events Conditions
12:36 AM 48.2 °F 39.2 °F 71% 30.31 in 10.0 mi Calm Calm - N/A   Mostly Cloudy
12:53 AM 51.1 °F 41.0 °F 68% 30.32 in 10.0 mi Calm Calm - N/A   Overcast
1:10 AM 51.8 °F 39.2 °F 62% 30.32 in 10.0 mi Calm Calm - N/A   Overcast
1:48 AM 51.8 °F 41.0 °F 67% 30.30 in 10.0 mi ESE 5.8 mph - N/A   Overcast
1:53 AM 52.0 °F 42.1 °F 69% 30.29 in 10.0 mi ESE 5.8 mph - N/A   Overcast
2:53 AM 53.1 °F 43.0 °F 69% 30.29 in 10.0 mi ESE 5.8 mph - N/A   Overcast
5:48 AM 53.6 °F 46.4 °F 77% 30.28 in 10.0 mi ESE 10.4 mph - N/A   Mostly Cloudy
5:53 AM 53.1 °F 46.9 °F 80% 30.28 in 10.0 mi ESE 8.1 mph - N/A   Mostly Cloudy
6:53 AM 52.0 °F 48.0 °F 86% 30.28 in 10.0 mi East 6.9 mph - N/A   Clear
7:53 AM 54.0 °F 48.9 °F 83% 30.29 in 9.0 mi East 10.4 mph - N/A   Mostly Cloudy
8:35 AM 55.4 °F 50.0 °F 82% 30.32 in 10.0 mi ESE 6.9 mph - N/A   Mostly Cloudy
8:53 AM 55.9 °F 50.0 °F 80% 30.32 in 10.0 mi East 5.8 mph - N/A   Overcast
9:53 AM 60.1 °F 52.0 °F 75% 30.31 in 10.0 mi ESE 8.1 mph 17.3 mph N/A   Mostly Cloudy
10:01 AM 60.8 °F 51.8 °F 72% 30.31 in 10.0 mi ESE 10.4 mph - N/A   Scattered Clouds
10:53 AM 66.0 °F - N/A% 30.30 in - ESE 10.4 mph - N/A   Unknown
12:24 PM 68.0 °F 55.4 °F 64% 30.28 in 10.0 mi ESE 5.8 mph - N/A   Overcast
12:53 PM 69.1 °F 55.0 °F 61% 30.26 in 10.0 mi East 8.1 mph - N/A   Overcast
1:53 PM 69.1 °F 55.9 °F 63% 30.23 in 10.0 mi SE 10.4 mph - N/A   Overcast
2:53 PM 68.0 °F 55.0 °F 63% 30.22 in 10.0 mi ESE 10.4 mph - N/A   Overcast
3:32 PM 66.2 °F 55.4 °F 68% 30.22 in 10.0 mi ESE 9.2 mph - N/A   Overcast
3:53 PM 66.9 °F 55.0 °F 66% 30.22 in 10.0 mi ESE 11.5 mph - N/A   Overcast
4:39 PM 66.2 °F 55.4 °F 68% 30.23 in 10.0 mi East 8.1 mph - N/A   Overcast
4:53 PM 64.9 °F 54.0 °F 68% 30.22 in 10.0 mi East 8.1 mph - N/A   Overcast
5:53 PM 64.0 °F 54.0 °F 70% 30.22 in 10.0 mi ESE 9.2 mph - N/A   Overcast
6:53 PM 63.0 °F 55.0 °F 75% 30.22 in 10.0 mi SE 9.2 mph - N/A   Overcast
7:53 PM 62.1 °F 55.0 °F 78% 30.23 in 10.0 mi SE 12.7 mph - N/A   Overcast
8:04 PM 62.6 °F 55.4 °F 77% 30.24 in 10.0 mi ESE 11.5 mph - N/A   Overcast
8:53 PM 61.0 °F 55.0 °F 81% 30.23 in 10.0 mi ESE 9.2 mph - N/A   Overcast
9:53 PM 61.0 °F 55.0 °F 81% 30.23 in 10.0 mi SE 11.5 mph - N/A   Overcast
10:49 PM 60.8 °F 55.4 °F 82% 30.23 in 10.0 mi SE 9.2 mph - N/A   Overcast
10:53 PM 60.1 °F 55.9 °F 86% 30.22 in 10.0 mi SE 12.7 mph - N/A   Overcast
11:53 PM 60.1 °F 55.9 °F 86% 30.21 in 8.0 mi SE 10.4 mph - N/A   Overcast